Weather History for KFTY - December, 2013

Change the Weather History Date:

Wednesday, December 4, 2013

  Actual Average Record
Temperature  
Mean Temperature 65 °F 47 °F  
Max Temperature 73 °F 57 °F 75 °F (1998)
Min Temperature 56 °F 37 °F 27 °F (2006)
Degree Days  
Heating Degree Days 0 18  
Month to date heating degree days 45 69  
Since 1 July heating degree days 618 579  
Growing Degree Days 14 (Base 50)    
Moisture  
Dew Point 59 °F    
Average Humidity 83    
Maximum Humidity 100    
Minimum Humidity 66    
Precipitation  
Precipitation 0.01 in 0.16 in 1.54 in (1964)
Month to date precipitation 0.50 0.68  
Year to date precipitation 47.86  
Snow  
Snow 0.00 in - - ()
Month to date snowfall 0.0  
Since 1 July snowfall 0.0  
Snow Depth 0.00 in    
Sea Level Pressure  
Sea Level Pressure 29.96 in    
Wind  
Wind Speed 3 mph (South)    
Max Wind Speed 13 mph    
Max Gust Speed 17 mph    
Visibility 5 miles    
Events Fog , Rain    
T = Trace of Precipitation, MM = Missing Value Source: NWS Daily Summary

Daily Weather History Graph

Daily Weather History Graph

Search for Another Location

Airport or City:

Trip Planner

Search our weather history database for the weather conditions in past years. The results will help you decide how hot, cold, wet, or windy it might be!

Date:

Astronomy

Dec. 04, 2013 Rise Set
Actual Time 7:27 AM EST 5:29 PM EST
Civil Twilight 7:00 AM EST 5:56 PM EST
Nautical Twilight 6:29 AM EST 6:27 PM EST
Astronomical Twilight 5:59 AM EST 6:57 PM EST
Moon 8:56 AM EST (12/4) 7:36 PM EST (12/4)
Length of Visible Light 10h 56m
Length of Day
10h 01m
Waxing Crescent, 4% of the Moon is Illuminated
Dec 4
Waxing Crescent
Dec 9
First Quarter
Dec 17
Full
Dec 25
Last Quarter
Jan 1
New

Hourly Weather History & Observations

Time (EST) Temp. Dew Point Humidity Pressure Visibility Wind Dir Wind Speed Gust Speed Precip Events Conditions
12:23 AM 57.2 °F 55.4 °F 94% 29.91 in 1.0 mi Calm Calm - 0.00 in   Overcast
12:53 AM 57.0 °F 55.9 °F 96% 29.91 in 1.0 mi Calm Calm - 0.00 in   Overcast
1:32 AM 57.2 °F 55.4 °F 94% 29.91 in 1.0 mi Calm Calm - 0.00 in   Mist
1:53 AM 57.0 °F 55.9 °F 96% 29.90 in 0.5 mi Calm Calm - 0.00 in Fog Fog
2:00 AM 57.2 °F 55.4 °F 94% 29.91 in 0.8 mi Calm Calm - N/A   Mist
2:09 AM 57.2 °F 55.4 °F 94% 29.91 in 0.5 mi Calm Calm - N/A Fog Fog
2:15 AM 57.2 °F 55.4 °F 94% 29.91 in 0.8 mi Calm Calm - N/A   Mist
2:28 AM 57.2 °F 55.4 °F 94% 29.92 in 1.0 mi Calm Calm - N/A   Mist
2:41 AM 57.2 °F 55.4 °F 94% 29.92 in 0.8 mi Calm Calm - N/A   Mist
2:53 AM 57.0 °F 55.9 °F 96% 29.91 in 1.0 mi Calm Calm - 0.00 in Rain Light Rain
3:02 AM 57.2 °F 55.4 °F 94% 29.92 in 0.5 mi Calm Calm - 0.00 in Fog Fog
3:53 AM 57.0 °F 55.9 °F 96% 29.91 in 0.5 mi Calm Calm - 0.00 in Fog , Rain Light Rain
3:55 AM 57.2 °F 55.4 °F 94% 29.92 in 1.0 mi Calm Calm - 0.00 in Rain Light Rain
4:02 AM 57.2 °F 55.4 °F 94% 29.92 in 0.5 mi Calm Calm - 0.00 in Fog Fog
4:53 AM 57.0 °F 55.9 °F 96% 29.91 in 0.5 mi Calm Calm - 0.00 in Fog Fog
5:53 AM 57.0 °F 57.0 °F 100% 29.94 in 0.5 mi Calm Calm - 0.01 in Fog Fog
6:00 AM 57.2 °F 55.4 °F 94% 29.95 in 1.0 mi Calm Calm - N/A   Overcast
6:53 AM 57.0 °F 55.9 °F 96% 29.95 in 1.0 mi Calm Calm - N/A   Overcast
7:24 AM 57.2 °F 57.2 °F 100% 29.97 in 2.0 mi Calm Calm - N/A   Overcast
7:29 AM 57.2 °F 57.2 °F 100% 29.97 in 1.0 mi Calm Calm - N/A   Overcast
7:53 AM 57.0 °F 57.0 °F 100% 29.97 in 1.0 mi Calm Calm - N/A   Overcast
8:53 AM 59.0 °F 57.9 °F 96% 29.99 in 1.0 mi Calm Calm - N/A   Overcast
9:53 AM 63.0 °F 60.1 °F 90% 30.01 in 1.0 mi Calm Calm - N/A   Overcast
10:00 AM 62.6 °F 60.8 °F 94% 30.01 in 5.0 mi Calm Calm - N/A   Overcast
10:53 AM 66.9 °F 63.0 °F 87% 30.01 in 10.0 mi SSW 6.9 mph - N/A   Overcast
11:00 AM 66.2 °F 62.6 °F 88% 30.02 in 10.0 mi South 6.9 mph - N/A   Overcast
11:39 AM 68.0 °F 62.6 °F 83% 30.01 in 10.0 mi South 8.1 mph - N/A   Mostly Cloudy
11:53 AM 68.0 °F 62.1 °F 81% 29.99 in 10.0 mi SW 3.5 mph 16.1 mph N/A   Mostly Cloudy
12:53 PM 70.0 °F 61.0 °F 73% 29.95 in 10.0 mi SSW 10.4 mph 16.1 mph N/A   Mostly Cloudy
1:53 PM 71.1 °F 60.1 °F 68% 29.93 in 10.0 mi SW 10.4 mph - N/A   Overcast
2:53 PM 72.0 °F 59.0 °F 64% 29.92 in 10.0 mi SSW 9.2 mph - N/A   Mostly Cloudy
3:53 PM 72.0 °F 60.1 °F 66% 29.93 in 10.0 mi South 6.9 mph - N/A   Scattered Clouds
4:53 PM 70.0 °F 60.1 °F 71% 29.95 in 10.0 mi South 4.6 mph - N/A   Mostly Cloudy
5:53 PM 68.0 °F 61.0 °F 78% 29.96 in 10.0 mi SSE 4.6 mph - N/A   Partly Cloudy
6:53 PM 66.0 °F 61.0 °F 84% 29.99 in 10.0 mi Calm Calm - N/A   Mostly Cloudy
7:53 PM 66.0 °F 61.0 °F 84% 29.99 in 10.0 mi SE 4.6 mph - N/A   Mostly Cloudy
8:26 PM 62.6 °F 60.8 °F 94% 30.01 in 8.0 mi Calm Calm - N/A   Overcast
8:48 PM 66.2 °F 62.6 °F 88% 30.01 in 10.0 mi SE 4.6 mph - N/A   Overcast
8:53 PM 66.0 °F 62.1 °F 87% 30.00 in 10.0 mi SE 4.6 mph - N/A   Overcast
9:17 PM 66.2 °F 62.6 °F 88% 30.01 in 10.0 mi SSE 5.8 mph - N/A   Overcast
9:53 PM 64.9 °F 63.0 °F 93% 29.99 in 5.0 mi SSE 5.8 mph - 0.00 in Rain Light Rain
9:59 PM 66.2 °F 62.6 °F 88% 30.01 in 9.0 mi South 8.1 mph - 0.00 in Rain Light Rain
10:06 PM 66.2 °F 62.6 °F 88% 30.01 in 10.0 mi SSE 6.9 mph - 0.00 in   Overcast
10:14 PM 66.2 °F 62.6 °F 88% 30.01 in 10.0 mi SSE 9.2 mph - 0.00 in   Overcast
10:24 PM 66.2 °F 62.6 °F 88% 30.02 in 10.0 mi South 8.1 mph - 0.00 in   Overcast
10:43 PM 66.2 °F 62.6 °F 88% 30.03 in 10.0 mi Calm Calm - 0.00 in   Overcast
10:53 PM 66.0 °F 63.0 °F 90% 30.01 in 10.0 mi Calm Calm - 0.00 in   Overcast
11:11 PM 66.2 °F 64.4 °F 94% 30.04 in 10.0 mi Calm Calm - N/A   Overcast
11:53 PM 66.0 °F 64.0 °F 93% 30.02 in 10.0 mi Calm Calm - N/A   Overcast